Content
SEND FEEDBACK

Mexico Flag

SAN BALTAZAR TETELA, PUEBLA


Home > North America > Mexico > Puebla
Elevation: 6759 feet     Latitude: 18 54N     Longitude: 098 10W

WEATHER
 
SELECT A DAY
Number of Records: 137,437;   Date Range: 1/1/95 - 3/22/16
 
SHARE

PRINT THIS DATA

[ ← Previous Day ]
WEATHER ALMANAC - SEPTEMBER 29, 2013
[ Next Day → ]
[ °C ]   °F
Weather ElementAverageHighLow
Temperature64.6 °F78 °F (3:40 pm)50 °F (6:44 am)
Dewpoint49.4 °F55.4 °F (10:44 am)39 °F (3:40 pm)
Humidity60.5 %100 % (6:44 am)15 % (3:40 pm)
Barometer30.19 in30.39 in (9:58 am)29.68 in (6:40 pm)
Wind Speed5.6 mph18.4 mph (6:48 pm)
Wind Gust29.9 mph (6:48 pm)
Weather ElementAverage
Visibility8.2 mi
Wind DirectionSSW (195 °)

Weather ElementTotal
Precipitation---
Heating Degree Days1 (Base 65)
Growing Degree Days14 (Base 50)
Averaged from 25 records on September 29, 2013
WEATHER CONDITIONS BREAKOUT
WIND DIRECTION BREAKOUT
WEATHER BY HOUR - SEPTEMBER 29, 2013
[ °C ]   °F
Local TimeTemperatureDewpointHumidityBarometerVisibilityWind DirectionWind SpeedGust SpeedPrecipitationEventsConditions
3:50 AM57.0 °F53.0 °F81 %29.88 in3.0 miCalmScattered Clouds
5:56 AM51.8 °F50.0 °F94 %30.36 in6.0 miNNW (330°)6.9 mphScattered Clouds
6:44 AM50.0 °F50.0 °F100 %30.36 in7.0 miNNW (340°)4.6 mphPartly Cloudy
6:50 AM53.0 °F50.0 °F84 %29.94 in3.0 miCalm
7:45 AM50.0 °F48.2 °F94 %30.37 in8.0 miNorth (350°)6.9 mphClear
8:43 AM55.4 °F51.8 °F88 %30.38 in8.0 miNNW (340°)8.1 mphClear
9:40 AM64.0 °F50.0 °F51 %29.98 in6.0 miWNW (290°)2.2 mphHaze
9:58 AM62.6 °F51.8 °F68 %30.39 in8.0 miNNW (340°)9.2 mphClear
10:44 AM66.2 °F55.4 °F68 %30.38 in9.0 miNNW (330°)8.1 mphClear
11:40 AM71.6 °F46.4 °F41 %30.37 in10.0 miNorth (360°)10.4 mphClear
12:40 PM73.0 °F43.0 °F23 %29.92 in9.0 miSSE (160°)2.2 mphHaze
12:43 PM73.4 °F46.4 °F38 %30.36 in12.0 miNNE (20°)6.9 mphPartly Cloudy
1:41 PM75.2 °F39.2 °F27 %30.33 in12.0 miENE (70°)5.8 mphScattered Clouds
2:42 PM77.0 °F48.2 °F36 %30.30 in12.0 miSouth (180°)9.2 mphMostly Cloudy
3:40 PM78.0 °F39.0 °F15 %29.75 in9.0 miSE (140°)2.2 mphRainLight Drizzle
3:44 PM75.2 °F46.4 °F36 %30.27 in12.0 miSE (140°)6.9 mphScattered Clouds
4:43 PM77.0 °F50.0 °F39 %30.26 in12.0 miEast (100°)4.6 mphScattered Clouds
5:42 PM69.8 °F55.4 °F60 %30.25 in11.0 miSouth (190°)13.8 mphScattered Clouds
6:40 PM68.0 °F44.0 °F31 %29.68 in9.0 miSE (140°)2.2 mphHaze
6:48 PM66.2 °F55.4 °F68 %30.27 in4.0 miSSE (160°)18.4 mph29.9 mphRainRain
7:45 PM59.0 °F53.6 °F82 %30.31 in7.0 miNNE (30°)8.1 mphMostly Cloudy
8:45 PM60.8 °F53.6 °F77 %30.32 in8.0 miCalmMostly Cloudy
9:45 PM59.0 °F55.4 °F88 %30.34 in8.0 miCalmMostly Cloudy
9:58 PM64.0 °F46.0 °F41 %29.72 in3.0 miCalmPartly Cloudy
10:40 PM59.0 °F53.6 °F82 %30.36 in8.0 miWest (280°)2.3 mphScattered Clouds
Hourly data recorded from MMPB, located miles away from San Baltazar Tetela, Puebla




STORIES FROM OUR PARTNERS